Year,Month,Day,Hour,Minute,Value (Times are PST for temperature in C)
2019,01,27,00,00,5.90
2019,01,27,00,01,5.90
2019,01,27,00,02,5.90
2019,01,27,00,03,5.90
2019,01,27,00,04,5.90
2019,01,27,00,05,5.90
2019,01,27,00,06,5.90
2019,01,27,00,07,5.90
2019,01,27,00,08,5.90
2019,01,27,00,09,5.90
2019,01,27,00,10,5.90
2019,01,27,00,11,5.90
2019,01,27,00,12,5.80
2019,01,27,00,13,5.80
2019,01,27,00,14,5.80
2019,01,27,00,15,5.80
2019,01,27,00,16,5.80
2019,01,27,00,17,5.80
2019,01,27,00,18,5.80
2019,01,27,00,19,5.80
2019,01,27,00,20,5.80
2019,01,27,00,21,5.80
2019,01,27,00,22,5.80
2019,01,27,00,23,5.80
2019,01,27,00,24,5.80
2019,01,27,00,25,5.80
2019,01,27,00,26,5.80
2019,01,27,00,27,5.80
2019,01,27,00,28,5.80
2019,01,27,00,29,5.80
2019,01,27,00,30,5.80
2019,01,27,00,31,5.80
2019,01,27,00,32,5.80
2019,01,27,00,33,5.80
2019,01,27,00,34,5.80
2019,01,27,00,35,5.80
2019,01,27,00,36,5.80
2019,01,27,00,37,5.80
2019,01,27,00,38,5.80
2019,01,27,00,39,5.80
2019,01,27,00,40,5.80
2019,01,27,00,41,5.80
2019,01,27,00,42,5.80
2019,01,27,00,43,5.80
2019,01,27,00,44,5.80
2019,01,27,00,45,5.80
2019,01,27,00,46,5.80
2019,01,27,00,47,5.80
2019,01,27,00,48,5.80
2019,01,27,00,49,5.80
2019,01,27,00,50,5.80
2019,01,27,00,51,5.80
2019,01,27,00,52,5.80
2019,01,27,00,53,5.80
2019,01,27,00,54,5.80
2019,01,27,00,55,5.80
2019,01,27,00,56,5.80
2019,01,27,00,57,5.80
2019,01,27,00,58,5.80
2019,01,27,00,59,5.80
2019,01,27,01,00,5.80
2019,01,27,01,01,5.80
2019,01,27,01,02,5.80
2019,01,27,01,03,5.80
2019,01,27,01,04,5.80
2019,01,27,01,05,5.80
2019,01,27,01,06,5.80
2019,01,27,01,07,5.80
2019,01,27,01,08,5.80
2019,01,27,01,09,5.80
2019,01,27,01,10,5.80
2019,01,27,01,11,5.80
2019,01,27,01,12,5.80
2019,01,27,01,13,5.70
2019,01,27,01,14,5.70
2019,01,27,01,15,5.70
2019,01,27,01,16,5.70
2019,01,27,01,17,5.70
2019,01,27,01,18,5.70
2019,01,27,01,19,5.70
2019,01,27,01,20,5.70
2019,01,27,01,21,5.70
2019,01,27,01,22,5.70
2019,01,27,01,23,5.70
2019,01,27,01,24,5.70
2019,01,27,01,25,5.70
2019,01,27,01,26,5.70
2019,01,27,01,27,5.70
2019,01,27,01,28,5.70
2019,01,27,01,29,5.70
2019,01,27,01,30,5.70
2019,01,27,01,31,5.70
2019,01,27,01,32,5.70
2019,01,27,01,33,5.70
2019,01,27,01,34,5.70
2019,01,27,01,35,5.70
2019,01,27,01,36,5.70
2019,01,27,01,37,5.70
2019,01,27,01,38,5.70
2019,01,27,01,39,5.70
2019,01,27,01,40,5.70
2019,01,27,01,41,5.70
2019,01,27,01,42,5.70
2019,01,27,01,43,5.70
2019,01,27,01,44,5.70
2019,01,27,01,45,5.70
2019,01,27,01,46,5.70
2019,01,27,01,47,5.70
2019,01,27,01,48,5.70
2019,01,27,01,49,5.70
2019,01,27,01,50,5.70
2019,01,27,01,51,5.70
2019,01,27,01,52,5.70
2019,01,27,01,53,5.70
2019,01,27,01,54,5.60
2019,01,27,01,55,5.60
2019,01,27,01,56,5.60
2019,01,27,01,57,5.60
2019,01,27,01,58,5.60
2019,01,27,01,59,5.70
2019,01,27,02,00,5.70
2019,01,27,02,01,5.70
2019,01,27,02,02,5.70
2019,01,27,02,03,5.60
2019,01,27,02,04,5.70
2019,01,27,02,05,5.70
2019,01,27,02,06,5.70
2019,01,27,02,07,5.60
2019,01,27,02,08,5.60
2019,01,27,02,09,5.60
2019,01,27,02,10,5.60
2019,01,27,02,11,5.60
2019,01,27,02,12,5.60
2019,01,27,02,13,5.60
2019,01,27,02,14,5.60
2019,01,27,02,15,5.60
2019,01,27,02,16,5.60
2019,01,27,02,17,5.60
2019,01,27,02,18,5.60
2019,01,27,02,19,5.60
2019,01,27,02,20,5.60
2019,01,27,02,21,5.60
2019,01,27,02,22,5.60
2019,01,27,02,23,5.60
2019,01,27,02,24,5.60
2019,01,27,02,25,5.60
2019,01,27,02,26,5.60
2019,01,27,02,27,5.60
2019,01,27,02,28,5.60
2019,01,27,02,29,5.60
2019,01,27,02,30,5.60
2019,01,27,02,31,5.60
2019,01,27,02,32,5.60
2019,01,27,02,33,5.60
2019,01,27,02,34,5.50
2019,01,27,02,35,5.50
2019,01,27,02,36,5.50
2019,01,27,02,37,5.50
2019,01,27,02,38,5.50
2019,01,27,02,39,5.50
2019,01,27,02,40,5.50
2019,01,27,02,41,5.50
2019,01,27,02,42,5.50
2019,01,27,02,43,5.50
2019,01,27,02,44,5.50
2019,01,27,02,45,5.50
2019,01,27,02,46,5.50
2019,01,27,02,47,5.50
2019,01,27,02,48,5.50
2019,01,27,02,49,5.50
2019,01,27,02,50,5.50
2019,01,27,02,51,5.40
2019,01,27,02,52,5.40
2019,01,27,02,53,5.40
2019,01,27,02,54,5.40
2019,01,27,02,55,5.40
2019,01,27,02,56,5.40
2019,01,27,02,57,5.40
2019,01,27,02,58,5.40
2019,01,27,02,59,5.40
2019,01,27,03,00,5.40
2019,01,27,03,01,5.40
2019,01,27,03,02,5.40
2019,01,27,03,03,5.40
2019,01,27,03,04,5.40
2019,01,27,03,05,5.40
2019,01,27,03,06,5.40
2019,01,27,03,07,5.40
2019,01,27,03,08,5.40
2019,01,27,03,09,5.40
2019,01,27,03,10,5.40
2019,01,27,03,11,5.40
2019,01,27,03,12,5.40
2019,01,27,03,13,5.40
2019,01,27,03,14,5.40
2019,01,27,03,15,5.40
2019,01,27,03,16,5.40
2019,01,27,03,17,5.40
2019,01,27,03,18,5.40
2019,01,27,03,19,5.40
2019,01,27,03,20,5.50
2019,01,27,03,21,5.50
2019,01,27,03,22,5.50
2019,01,27,03,23,5.50
2019,01,27,03,24,5.50
2019,01,27,03,25,5.40
2019,01,27,03,26,5.40
2019,01,27,03,27,5.40
2019,01,27,03,28,5.40
2019,01,27,03,29,5.40
2019,01,27,03,30,5.40
2019,01,27,03,31,5.40
2019,01,27,03,32,5.40
2019,01,27,03,33,5.40
2019,01,27,03,34,5.40
2019,01,27,03,35,5.40
2019,01,27,03,36,5.40
2019,01,27,03,37,5.40
2019,01,27,03,38,5.40
2019,01,27,03,39,5.40
2019,01,27,03,40,5.40
2019,01,27,03,41,5.40
2019,01,27,03,42,5.40
2019,01,27,03,43,5.40
2019,01,27,03,44,5.40
2019,01,27,03,45,5.40
2019,01,27,03,46,5.40
2019,01,27,03,47,5.30
2019,01,27,03,48,5.30
2019,01,27,03,49,5.30
2019,01,27,03,50,5.30
2019,01,27,03,51,5.30
2019,01,27,03,52,5.30
2019,01,27,03,53,5.30
2019,01,27,03,54,5.30
2019,01,27,03,55,5.30
2019,01,27,03,56,5.30
2019,01,27,03,57,5.30
2019,01,27,03,58,5.30
2019,01,27,03,59,5.30
2019,01,27,04,00,5.30
2019,01,27,04,01,5.30
2019,01,27,04,02,5.30
2019,01,27,04,03,5.30
2019,01,27,04,04,5.30
2019,01,27,04,05,5.30
2019,01,27,04,06,5.20
2019,01,27,04,07,5.20
2019,01,27,04,08,5.20
2019,01,27,04,09,5.20
2019,01,27,04,10,5.20
2019,01,27,04,11,5.20
2019,01,27,04,12,5.20
2019,01,27,04,13,5.20
2019,01,27,04,14,5.20
2019,01,27,04,15,5.20
2019,01,27,04,16,5.20
2019,01,27,04,17,5.20
2019,01,27,04,18,5.20
2019,01,27,04,19,5.20
2019,01,27,04,20,5.20
2019,01,27,04,21,5.20
2019,01,27,04,22,5.20
2019,01,27,04,23,5.20
2019,01,27,04,24,5.20
2019,01,27,04,25,5.20
2019,01,27,04,26,5.20
2019,01,27,04,27,5.20
2019,01,27,04,28,5.20
2019,01,27,04,29,5.20
2019,01,27,04,30,5.20
2019,01,27,04,31,5.20
2019,01,27,04,32,5.20
2019,01,27,04,33,5.20
2019,01,27,04,34,5.20
2019,01,27,04,35,5.20
2019,01,27,04,36,5.20
2019,01,27,04,37,5.20
2019,01,27,04,38,5.20
2019,01,27,04,39,5.20
2019,01,27,04,40,5.20
2019,01,27,04,41,5.20
2019,01,27,04,42,5.20
2019,01,27,04,43,5.20
2019,01,27,04,46,5.20
2019,01,27,04,47,5.20
2019,01,27,04,48,5.20
2019,01,27,04,49,5.20
2019,01,27,04,51,5.20
2019,01,27,04,54,5.10
2019,01,27,04,55,5.10
2019,01,27,15,28,7.40
2019,01,27,15,29,7.40
2019,01,27,15,30,7.40
2019,01,27,15,31,7.40
2019,01,27,15,32,7.40
2019,01,27,15,33,7.40
2019,01,27,15,34,7.40
2019,01,27,15,35,7.40
2019,01,27,15,36,7.40
2019,01,27,15,37,7.40
2019,01,27,15,38,7.30
2019,01,27,15,39,7.30
2019,01,27,15,40,7.30
2019,01,27,15,41,7.40
2019,01,27,15,42,7.40
2019,01,27,15,43,7.30
2019,01,27,15,44,7.30
2019,01,27,15,45,7.30
2019,01,27,15,46,7.30
2019,01,27,15,47,7.30
2019,01,27,15,48,7.30
2019,01,27,15,49,7.30
2019,01,27,15,50,7.30
2019,01,27,15,51,7.30
2019,01,27,15,52,7.30
2019,01,27,15,53,7.30
2019,01,27,15,54,7.30
2019,01,27,15,55,7.30
2019,01,27,15,56,7.30
2019,01,27,15,57,7.30
2019,01,27,15,58,7.30
2019,01,27,15,59,7.30
2019,01,27,16,00,7.30
2019,01,27,16,01,7.30
2019,01,27,16,02,7.30
2019,01,27,16,03,7.30
2019,01,27,16,04,7.30
2019,01,27,16,05,7.30
2019,01,27,16,06,7.30
2019,01,27,16,07,7.30
2019,01,27,16,08,7.30
2019,01,27,16,09,7.20
2019,01,27,16,10,7.20
2019,01,27,16,11,7.20
2019,01,27,16,12,7.30
2019,01,27,16,13,7.30
2019,01,27,16,14,7.30
2019,01,27,16,15,7.30
2019,01,27,16,16,7.30
2019,01,27,16,17,7.30
2019,01,27,16,18,7.30
2019,01,27,16,19,7.30
2019,01,27,16,20,7.30
2019,01,27,16,21,7.30
2019,01,27,16,22,7.30
2019,01,27,16,23,7.30
2019,01,27,16,24,7.30
2019,01,27,16,25,7.30
2019,01,27,16,26,7.30
2019,01,27,16,27,7.30
2019,01,27,16,28,7.30
2019,01,27,16,29,7.30
2019,01,27,16,30,7.30
2019,01,27,16,31,7.30
2019,01,27,16,32,7.20
2019,01,27,16,33,7.20
2019,01,27,16,34,7.20
2019,01,27,16,35,7.20
2019,01,27,16,36,7.20
2019,01,27,16,37,7.20
2019,01,27,16,38,7.20
2019,01,27,16,39,7.20
2019,01,27,16,40,7.20
2019,01,27,16,41,7.20
2019,01,27,16,42,7.20
2019,01,27,16,43,7.20
2019,01,27,16,44,7.20
2019,01,27,16,45,7.20
2019,01,27,16,46,7.20
2019,01,27,16,47,7.20
2019,01,27,16,48,7.20
2019,01,27,16,49,7.20
2019,01,27,16,50,7.20
2019,01,27,16,51,7.20
2019,01,27,16,52,7.20
2019,01,27,16,53,7.20
2019,01,27,16,54,7.10
2019,01,27,16,55,7.10
2019,01,27,16,56,7.10
2019,01,27,16,57,7.10
2019,01,27,16,58,7.10
2019,01,27,16,59,7.10
2019,01,27,17,00,7.10
2019,01,27,17,01,7.10
2019,01,27,17,02,7.10
2019,01,27,17,03,7.10
2019,01,27,17,04,7.10
2019,01,27,17,05,7.10
2019,01,27,17,06,7.10
2019,01,27,17,07,7.10
2019,01,27,17,08,7.10
2019,01,27,17,09,7.10
2019,01,27,17,10,7.10
2019,01,27,17,11,7.10
2019,01,27,17,12,7.10
2019,01,27,17,13,7.10
2019,01,27,17,14,7.10
2019,01,27,17,15,7.10
2019,01,27,17,16,7.10
2019,01,27,17,17,7.00
2019,01,27,17,18,7.00
2019,01,27,17,19,7.00
2019,01,27,17,20,7.00
2019,01,27,17,21,7.00
2019,01,27,17,22,7.00
2019,01,27,17,23,7.00
2019,01,27,17,24,7.00
2019,01,27,17,25,7.00
2019,01,27,17,26,7.00
2019,01,27,17,27,7.00
2019,01,27,17,28,7.00
2019,01,27,18,16,6.90
2019,01,27,18,17,6.90
2019,01,27,18,18,6.90
2019,01,27,18,19,6.90
2019,01,27,18,20,6.90
2019,01,27,18,21,6.90
2019,01,27,18,22,6.90
2019,01,27,18,23,6.90
2019,01,27,18,24,6.90
2019,01,27,18,25,6.90
2019,01,27,18,26,6.90
2019,01,27,18,27,6.90
2019,01,27,18,28,6.90
2019,01,27,18,29,6.90
2019,01,27,18,30,6.90
2019,01,27,18,31,6.90
2019,01,27,18,32,6.90
2019,01,27,18,33,6.90
2019,01,27,18,34,6.90
2019,01,27,18,35,6.90
2019,01,27,18,36,6.90
2019,01,27,18,37,6.90
2019,01,27,18,38,6.90
2019,01,27,18,54,6.90
2019,01,27,18,55,6.90
2019,01,27,18,56,6.90
2019,01,27,18,57,6.90
2019,01,27,18,58,6.90
2019,01,27,18,59,6.90
2019,01,27,19,00,6.90
2019,01,27,19,01,6.90
2019,01,27,19,02,6.90
2019,01,27,19,03,6.90
2019,01,27,19,04,6.90
2019,01,27,19,05,6.90
2019,01,27,19,06,6.90
2019,01,27,21,48,5.50
2019,01,27,21,49,5.50
2019,01,27,21,50,5.50
2019,01,27,21,51,5.40
2019,01,27,21,52,5.40
2019,01,27,21,53,5.40
2019,01,27,21,54,5.40
2019,01,27,21,55,5.40
2019,01,27,21,56,5.40
2019,01,27,21,57,5.40
2019,01,27,21,58,5.40
2019,01,27,21,59,5.40
2019,01,27,22,00,5.30
2019,01,27,22,01,5.30
2019,01,27,22,02,5.30
2019,01,27,22,03,5.30
2019,01,27,22,04,5.30
2019,01,27,22,05,5.30
2019,01,27,22,06,5.30
2019,01,27,22,07,5.30
2019,01,27,22,08,5.30
2019,01,27,22,09,5.30
2019,01,27,22,10,5.30
2019,01,27,22,11,5.30
2019,01,27,22,12,5.30
2019,01,27,22,13,5.30
2019,01,27,22,14,5.30
2019,01,27,22,15,5.30
2019,01,27,22,16,5.30
2019,01,27,22,17,5.30
2019,01,27,22,18,5.30
2019,01,27,22,19,5.20
2019,01,27,22,20,5.20
2019,01,27,22,21,5.20
2019,01,27,22,22,5.20
2019,01,27,22,23,5.20
2019,01,27,22,24,5.20
2019,01,27,22,25,5.20
2019,01,27,22,26,5.20
2019,01,27,22,27,5.20
2019,01,27,22,28,5.20
2019,01,27,22,29,5.20
2019,01,27,22,30,5.20
2019,01,27,22,31,5.20
2019,01,27,22,32,5.10
2019,01,27,22,33,5.10
2019,01,27,22,34,5.10
2019,01,27,22,35,5.10
2019,01,27,22,36,5.10
2019,01,27,22,37,5.10
2019,01,27,22,38,5.10
2019,01,27,22,39,5.10
2019,01,27,22,40,5.10
2019,01,27,22,41,5.10
2019,01,27,22,42,5.10
2019,01,27,22,43,5.10
2019,01,27,22,44,5.10
2019,01,27,22,45,5.10
2019,01,27,22,46,5.10
2019,01,27,22,47,5.10
2019,01,27,22,48,4.90
2019,01,27,22,49,4.90
2019,01,27,22,50,4.90
2019,01,27,22,51,4.90
2019,01,27,22,52,4.90
2019,01,27,22,53,4.90
2019,01,27,22,54,4.80
2019,01,27,22,55,4.80
2019,01,27,22,56,4.80
2019,01,27,22,57,4.80
2019,01,27,22,58,4.80
2019,01,27,22,59,4.80
2019,01,27,23,00,4.80
2019,01,27,23,01,4.80
2019,01,27,23,02,4.80
2019,01,27,23,03,4.80
2019,01,27,23,04,4.80
2019,01,27,23,05,4.80
2019,01,27,23,06,4.70
2019,01,27,23,07,4.70
2019,01,27,23,08,4.70
2019,01,27,23,09,4.70
2019,01,27,23,10,4.70
2019,01,27,23,11,4.70
2019,01,27,23,12,4.60
2019,01,27,23,13,4.60
2019,01,27,23,14,4.60
2019,01,27,23,15,4.60
2019,01,27,23,16,4.60
2019,01,27,23,17,4.60
2019,01,27,23,18,4.50
2019,01,27,23,19,4.40
2019,01,27,23,20,4.40
2019,01,27,23,21,4.40
2019,01,27,23,22,4.40
2019,01,27,23,23,4.40
2019,01,27,23,24,4.40
2019,01,27,23,25,4.40
2019,01,27,23,26,4.40
2019,01,27,23,27,4.40
2019,01,27,23,28,4.40
2019,01,27,23,29,4.40
2019,01,27,23,30,4.40
2019,01,27,23,31,4.40
